Погода в Нововязниках

Россия / Владимирская область     56°11′44″N   42°10′11″E
темп.,
°C
ветер,
м/с
пор.,
м/с
влажн.,
%
обл.,
%
осадки,
мм/ч
давл.,
гПа
погр.,
м
20 сентября, пн
пн2000:00+5в41160100 0.0 1025356
03:00+5в51261100 0.0 1024487
06:00+5в61365100 0.0 1024575
09:00+6в71464100 0.0 1024687
12:00+8в81156100 0.0 10241024
15:00+10в81250100 0.0 10231320
18:00+8вюв71258100 0.2 10231178
21:00+8в61159100 0.5 10231096
21 сентября, вт
вт2100:00+7вюв71162100 0.1 1022937
03:00+5в61278100 0.9 1021665
06:00+5в61493100 2.0 1020597
09:00+5в71489100 3.2 1020673
12:00+6в71387100 0.7 1019663
15:00+5в61388100 2.4 1018666
18:00+6в61486100 1.0 1017796
21:00+6в71491100 3.3 1016772
22 сентября, ср
ср2200:00+6в61387100 2.3 1015619
03:00+5всв51290100 4.4 1014552
06:00+5всв51295100 5.9 1013567
09:00+5всв51295100 9.1 1013690
12:00+6в51093100 0.1 1013603
15:00+7всв51094100 0.1 1014553
18:00+8всв5109399 0.0 1014413
21:00+8всв5119576 0.5 1014415
23 сентября, чт
чт2300:00+8в51097100 0.1 1015412
03:00+8юв4896100 0.2 1015417
06:00+6ююв379622 0.1 1017189
09:00+8ююв3888100 0.1 1018320
12:00+12юв3569100 0.0 1018778
15:00+12вюв3570100 0.0 1017543
18:00+9юв1191100 0.4 101716
21:00+8с2295100 0.8 101639
24 сентября, пт
пт2400:00+8ююз1197100 0.2 101520
03:00+8ю2296100 0.2 101652
06:00+7ююв3497100 0.0 101681
09:00+9ююв2594100 0.7 1015208
12:00+9ююв1397100 3.9 1013261
15:00+8ююв1296100 5.3 1012143
18:00+8ююв2296100 0.8 101187
21:00+7ююз2496100 0.8 1011147